Location: Bühlhof
(48.7849°N, 8.6361°E)
Time: 23:20:39
(UTC+00:00)

Meteor 1-24 Rocket - Pass Details

Date: 19 January 2026
Orbit: 790 x 925 km, 81.3° (Epoch: 18 February)

Event Time Altitude Azimuth Distance (km) Brightness Sun altitude
Rises 18:51:48 0° 189° (S) 3,403 7.0 -27.4°
Reaches altitude 10° 18:54:10 10° 189° (S) 2,492 6.2 -27.8°
Enters shadow 18:59:11 71° 184° (S) 931 3.8 -28.6°
